This demonstration page uses our WeatherBlox Daily Observations layout. Learn more.

Left ArrowRight Arrow

38.20091, -84.87328

Hourly Observations for July 13, 2021

Temp ( °F °C ) Dew Point ( °F °C ) Humidity (%) Winds ( mph kmh ) Pressure ( in mb ) Visibility ( mi km ) Precip ( " mm )
12:53 am 00:53 Partly Cloudy 74 23.3 70 21.1 88 88 S 10 17 30.08 1019 10 16 0.00 0.00
1:53 am 01:53 Clear 73 22.8 69 20.6 87 87 S 12 19 30.07 1018 10 16 0.00 0.00
2:53 am 02:53 Mostly Clear 73 22.8 70 21.1 90 90 S 9 15 30.07 1018 10 16 0.00 0.00
3:53 am 03:53 Mostly Clear 73 22.8 70 21.1 90 90 SSW 8 13 30.05 1018 10 16 0.00 0.00
4:53 am 04:53 Mostly Cloudy 72 22.2 70 21.1 94 94 SSW 8 13 30.04 1017 10 16 0.01 0.25
5:13 am 05:13 Mostly Cloudy 72 22.2 69 20.6 91 91 SSW 15 24 30.05 1018 10 16 0.00 0.00
5:53 am 05:53 Cloudy 72 22.2 69 20.6 91 91 SSW 10 17 30.07 1018 10 16 0.00 0.00
6:53 am 06:53 Cloudy 73 22.8 69 20.6 87 87 S 8 13 30.09 1019 10 16 0.00 0.00
7:02 am 07:02 Mostly Cloudy 73 22.8 70 21.1 90 90 S 9 15 30.09 1019 10 16 0.00 0.00
7:53 am 07:53 Cloudy 73 22.8 70 21.1 90 90 S 9 15 30.11 1020 10 16 0.00 0.00
8:40 am 08:40 Cloudy 74 23.3 70 21.1 88 88 SSW 8 13 30.12 1020 10 16 0.00 0.00
8:53 am 08:53 Cloudy 74 23.3 70 21.1 88 88 SSW 7 11 30.13 1020 10 16 0.00 0.00
9:16 am 09:16 Cloudy 74 23.3 71 21.7 91 91 SSW 7 11 30.12 1020 10 16 0.00 0.00
9:53 am 09:53 Cloudy 74 23.3 70 21.1 88 88 SSW 9 15 30.13 1020 10 16 0.00 0.00
10:25 am 10:25 Partly Cloudy 76 24.4 71 21.7 85 85 SSW 10 17 30.13 1020 10 16 0.00 0.00
10:38 am 10:38 Mostly Cloudy 77 25 71 21.7 82 82 SSW 13 20 30.12 1020 10 16 0.00 0.00
10:53 am 10:53 Mostly Cloudy 78 25.6 71 21.7 79 79 SSW 13 20 30.12 1020 10 16 0.00 0.00
11:40 am 11:40 Mostly Cloudy 79 26.1 69 20.6 72 72 SSW 13 20 30.11 1020 10 16 0.00 0.00
11:48 am 11:48 Mostly Cloudy 79 26 70 21 74 74 SSW 10 17 30.11 1020 10 16 0.00 0.00
11:53 am 11:53 Mostly Cloudy 79 26.1 70 21.1 74 74 SW 10 17 30.12 1020 10 16 0.00 0.00
12:00 pm 12:00 Mostly Cloudy 79 26.1 69 20.6 72 72 SW 10 17 30.11 1020 10 16 0.00 0.00
12:53 pm 12:53 Sunny 79 26.1 71 21.7 77 77 SSW 15 24 30.13 1020 10 16 0.00 0.00
1:53 pm 13:53 Partly Cloudy 80 26.7 72 22.2 76 76 S 13 20 30.11 1020 10 16 0.00 0.00
2:53 pm 14:53 Sunny 78 25.6 69 20.6 74 74 SSW 13 20 30.11 1020 10 16 0.00 0.00
3:53 pm 15:53 Mostly Sunny 77 25 67 19.4 71 71 SSW 14 22 30.13 1020 10 16 0.00 0.00
4:53 pm 16:53 Partly Cloudy 80 26.7 69 20.6 69 69 SSW 15 24 30.11 1020 10 16 0.00 0.00
5:39 pm 17:39 Mostly Cloudy 81 27.2 71 21.7 72 72 S 13 20 30.09 1019 10 16 0.00 0.00
5:53 pm 17:53 Mostly Cloudy 80 26.7 70 21.1 71 71 SSW 12 19 30.10 1019 10 16 0.00 0.00
6:26 pm 18:26 Partly Cloudy 80 26.7 70 21.1 71 71 SW 15 24 30.09 1019 10 16 0.00 0.00
6:53 pm 18:53 Sunny 80 26.7 70 21.1 71 71 SW 12 19 30.11 1020 10 16 0.00 0.00
7:53 pm 19:53 Sunny 78 25.6 69 20.6 74 74 SSW 9 15 30.12 1020 10 16 0.00 0.00
8:53 pm 20:53 Mostly Sunny 76 24.4 68 20 77 77 SSW 8 13 30.13 1020 10 16 0.00 0.00
9:53 pm 21:53 Mostly Clear 73 22.8 67 19.4 81 81 SSW 5 7 30.14 1021 10 16 0.00 0.00
10:53 pm 22:53 Mostly Clear 73 22.8 68 20 84 84 Calm 30.15 1021 10 16 0.00 0.00
11:53 pm 23:53 Mostly Clear 71 21.7 68 20 90 90 SSE 3 6 30.16 1022 10 16 0.00 0.00

Powered by AerisWeather